Location: G�ndlingen
(48.0142°N, 7.6396°E)
Time: 08:36:11
(UTC+00:00)

ATLAS CENTAUR R/B - Pass Details

Date: 05 July 2020
Orbit: 475 x 672 km, 64.7° (Epoch: 13 July)

Event Time Altitude Azimuth Distance (km) Brightness Sun altitude
Rises 20:12:38 0° 327° (NNW) 2,594 6.8 -6.1°
Reaches altitude 10° 20:15:04 10° 340° (NNW) 1,685 5.0 -6.4°
Maximum altitude 20:18:17 27° 40° (NE) 960 2.6 -6.8°
Drops below altitude 10° 20:21:27 10° 100° (E) 1,646 3.3 -7.2°
Enters shadow 20:22:16 - 106° (ESE) 1,944 3.6 -7.3°
